DELTA 2 R/B(1)

基本信息
目录编号:
25359
目录名称:
DELTA 2 R/B(1)
国际标识:
1998-035B
轨道中心:
EARTH
物体状态:
在轨
发射日期:
1998-06-10 UTC
国别:
美国 (US)
轨道信息
数据来源: 国际轨道数据
星历时间: 2026-09-11T14:40:44+0800
半长轴: 7661.375km
偏心率: 0.0513067
轨道倾角: 26.386°
近地点辐角: 298.165°
升交点赤经: 197.641°
平近点角: 219.806°
近地点: 890.158km
远地点: 1676.318km
周期: 111.229分钟
每日圈数: 12.946212
详细信息
发射场:
AFETR
轨道高度:
LEO
数据来源:
AOE Integration Group
参考系:
TEME
时间系统:
UTC
历元类型:
SGP4
2D轨道图
3D轨道图
轨道高度分析图
轨道倾角分析图
轨道综合分析图
查看轨道综合分析图